sat.trackr.live / text

‹ back to catalog

STARLINK-34476

NORAD 64364 · 2025-126W

PAYLOAD ACTIVE UNKNOWN

§ Identity

Operator
Country
US
Launch date
2025-06-13
Launch site
AFWTR
Launch vehicle
Mass (kg)
RCS (m²)

Purposes: comms

External: N2YO · Heavens-Above · Gunter

§ Orbital elements

Epoch: 2026-05-25T03:13:33.553632Z

Period
96.11 min
Inclination
70.0006°
Eccentricity
0.0003638
Mean motion
14.98334811 rev/d
Perigee alt
569.5 km
Apogee alt
574.6 km
Semi-major
6,950.2 km
B*
1.6265e-4
RAAN
201.6650°
Arg perigee
269.4710°
Mean anomaly
90.6032°
Rev number
5,213

§ Raw data

STARLINK-344761 64364U 25126W   26145.13441613  .00001848  00000+0  16265-3 0  99932 64364  70.0006 201.6650 0003638 269.4710  90.6032 14.98334811 52130

JSON: /api/v1/satellites/64364 · /tle

For live sub-satellite position, see the globe view (requires WebGL).

§ Visibility from observer

Set your observer location to see the next 7 days of passes ≥ 10°. The values pass through the URL so the page stays shareable.

No JS? Fill the form by hand. The geolocation button needs JavaScript.